Regional Weather Roundup
Issued by NWS

Home | Current Version | Previous Version | Text Only | Print | Product List | Glossary Off
Versions: 1 2 3 4 5 6 7 8 9 10 11 12 13 14 15 16 17 18 19 20 21 22 23 24 25 26 27 28 29 30 31 32 33 34 35 36 37 38 39 40 41 42 43 44 45 46 47 48 49 50

000
ASUS43 KMKX 192011
RWRWI

WISCONSIN REGIONAL WEATHER ROUNDUP
NATIONAL WEATHER SERVICE MILWAUKEE/SULLIVAN WI
300 PM CDT SUN OCT 19 2014

NOTE: "FAIR" INDICATES FEW OR NO CLOUDS BELOW 12,000 FEET WITH NO
SIGNIFICANT WEATHER AND/OR OBSTRUCTIONS TO VISIBILITY.

WIZ001-002-006>008-014>016-023>028-192100-
NORTHWEST WISCONSIN

CITY           SKY/WX    TMP DP  RH WIND       PRES   REMARKS
SUPERIOR ARPT  PTSUNNY   63  44  51 SW16G23   29.71F
ASHLAND        MOSUNNY   60  42  51 SW12G18   29.74F
HAYWARD        SUNNY     58  42  55 SW14G25   29.76F
SIREN          SUNNY     62  43  49 SW14      29.77F
CUMBERLAND     MOSUNNY   59  41  51 SW15      29.78F
RICE LAKE      MOSUNNY   58  42  54 SW13      29.81F
CHETEK         MOSUNNY   58  44  60 S6        29.80F
LADYSMITH      PTSUNNY   58  44  59 SW15G22   29.81F
EAU CLAIRE     PTSUNNY   61  43  51 SW13G21   29.82F
MENOMONIE      PTSUNNY   61  44  53 S12       29.82F
NEW RICHMOND   MOSUNNY   62  43  49 W14       29.80F
OSCEOLA        SUNNY     62  44  51 S10       29.81F
$$

WIZ003>005-009-010-017-018-192100-
NORTH CENTRAL WISCONSIN

CITY           SKY/WX    TMP DP  RH WIND       PRES   REMARKS
MANITOWISH WTR PTSUNNY   51  42  71 SW16G24   29.77S
ARBOR VITAE    PTSUNNY   52  42  70 SW12G17   29.78F
WOODRUFF       PTSUNNY   52  42  70 SW12G17   29.78F
RHINELANDER    PTSUNNY   49  40  71 SW14G22   29.81F
EAGLE RIVER    CLOUDY    49  38  66 SW13G18   29.79S
LAND O LAKES   CLOUDY    49  41  73 S8        29.77F
PHILLIPS       CLOUDY    52  42  69 SW13G18   29.79F
TOMAHAWK       CLOUDY    52  41  67 SW7       29.82F
MEDFORD        CLOUDY    52  43  72 S13       29.83F
MERRILL        DRIZZLE   51  43  72 SW14      29.83F
$$

WIZ029-030-035-036-043>047-192100-
CENTRAL WISCONSIN

CITY           SKY/WX    TMP DP  RH WIND       PRES   REMARKS
WAUSAU         CLOUDY    53  42  66 S12       29.83F
MOSINEE        MOSUNNY   54  45  71 S14G20    29.85F
MARSHFIELD     CLOUDY    56  42  59 SW15      29.85F
STEVENS POINT  LGT RAIN  53  40  59 SW14G25   29.86F
WAUPACA        PTSUNNY   58  41  53 S14G22    29.89F
WAUTOMA        CLOUDY    57  41  55 S10       29.90F
WISC RAPIDS      N/A     58  41  53 S18G28    29.87F
CAMP DOUGLAS   PTSUNNY   57  45  62 S8G21     29.87F
$$

WIZ011>013-019>022-031-037>040-048>050-192100-
NORTHEAST WISCONSIN

CITY           SKY/WX    TMP DP  RH WIND       PRES   REMARKS
ANTIGO         CLOUDY    50  43  76 S13       29.84F
SHAWANO        CLOUDY    55  40  57 SW10G16   29.88F
OCONTO         CLOUDY    53  43  68 S10       29.88F
STURGEON BAY   CLOUDY    54  39  58 S14G20    29.91F
GREEN BAY      CLOUDY    55  43  63 S14G22    29.91F
MANITOWOC      CLOUDY    55  41  59 S16G22    29.94F
APPLETON       PTSUNNY   55  39  54 SW16G23   29.92F
CLINTONVILLE   PTSUNNY   54  39  58 SW14G22   29.87F
OSHKOSH        PTSUNNY   56  42  59 S18G25    29.92F
$$

WIZ032>034-041-042-053>061-192100-
SOUTHWEST WISCONSIN

CITY           SKY/WX    TMP DP  RH WIND       PRES   REMARKS
LA CROSSE      MOSUNNY   63  44  50 SW17G25   29.86F
SPARTA         PTSUNNY   61  42  48 S15G22    29.87F
VIROQUA        MOSUNNY   59  44  57 SW17G26   29.89F
BOSCOBEL       MOSUNNY   62  44  51 S15G26    29.94F
PRAIRIE DU CHI MOSUNNY   61  43  50 S9G17     29.93F
PLATTEVILLE    CLOUDY    58  45  60 SW18      29.99F
$$

WIZ056-057-062-063-064-067-068-192100-
SOUTH CENTRAL WISCONSIN

CITY           SKY/WX    TMP DP  RH WIND       PRES   REMARKS
REEDSBURG      PTSUNNY   56  44  63 S14G21    29.91F
BARABOO/DELLS  PTSUNNY   56  41  55 SW15G24   29.92F
LONE ROCK      LGT RAIN  63  44  50 SW18G25   29.94F
MINERAL POINT  CLOUDY    59  43  55 S15G24    29.97F
MADISON        CLOUDY    55  41  59 S12       29.97F
MIDDLETON      CLOUDY    56  40  55 S16G24    29.97F
WATERTOWN      CLOUDY    55  42  61 S12G18    29.98F
MONROE         CLOUDY    54  43  66 S15G23    29.99F
JANESVILLE     SUNNY     57  39  51 SW15      30.01F
$$

WIZ051-052-058>065-066-070>072-192100-
SOUTHEAST WISCONSIN

CITY           SKY/WX    TMP DP  RH WIND       PRES   REMARKS
MILWAUKEE      CLOUDY    55  39  54 SW13      30.01F
WAUKESHA       MOSUNNY   54  39  58 S10G17    30.01F
MILWAUKEE/TIMM NOT AVBL
RACINE         CLOUDY    54  40  59 SW15G21   30.03F
BURLINGTON     CLOUDY    55  39  54 SW13G21   30.02F
KENOSHA        CLOUDY    54  40  59 SW15G22   30.03F
FOND DU LAC    CLOUDY    54  40  59 S15G24    29.93F
SHEBOYGAN      CLOUDY    56  40  55 SW17      29.96F
WEST BEND      CLOUDY    54  37  54 SW10G18   29.97F
JUNEAU         CLOUDY    54  41  62 S16G23    29.97F
$$

LSZ147-162-192100-
LAKE SUPERIOR

STATION/POSITION TIME  TEMP    WIND        PRES    WAVE
                       AIR SEA DIR/SP/G            HT/PER
                 (UTC) (F)     (DEG/KT/KT) (MB)    (FT/S)
W MID LAKE BUOY  1950   48 46  200/  8/  8 1007.1F   2/ 5
DEVILS ISLAND    2000   50     260/  8/ 10 1006.7F
PORT WING        1900   52     270/  9/ 11 1007.5F
SAXON HARBOR     1900   56     220/  5/ 12 1007.8F
$$

LMZ867-665-643>646-192100-
LAKE MICHIGAN

STATION/POSITION TIME  TEMP    WIND        PRES    WAVE
                       AIR SEA DIR/SP/G            HT/PER
                 (UTC) (F)     (DEG/KT/KT) (MB)    (FT/S)
CHAMBERS ISLAND  1900   52     170/  9/ 15 1013.5F
N MID LAKE BUOY  1950   49 51  200/ 21/ 25 1013.3F   5/ 5
NORTHPORT PIER   1900   51     150/  8/ 14 1013.5F
SISTER BAY       1758          230/ 14/ 16   N/A
KEWAUNEE LAKESHO 1900   53     180/ 12/ 15 1014.2F
SHEBOYGAN LAKESH 2000   54 50  210/ 21/ 24 1014.9F
PORT WASHINGTON  1940   57     200/  9/ 14 1016.3F
ATWATER BUOY     2000   54     190/ 14/ 17 1017.0F
MILWAUKEE LAKESH 1900   53     220/ 14/ 17   N/A
S MID LAKE BUOY  1950   51 55  200/ 17/ 21 1017.7F   3/ 5
KENOSHA   LAKESH 2000   54     220/ 13/ 17 1016.6F
$$

TC  - TEMPERATURE IN CELSIUS
VSB - VISIBILITY IN STATUTE MILES
WCI - WIND CHILL INDEX
HX  - HEAT INDEX



USA.gov is the U.S. government's official web portal to all federal, state and local government web resources and services.